www.pogodaiklimat.ru

Погода и климат >> Архив погоды >> Южная Африка >> Langebaanweg


ПОГОДА в Langebaanweg

  • Прогноз погоды в Langebaanweg
  • Монитор погоды в Langebaanweg
  • Климат города

АРХИВ ПОГОДЫ в Langebaanweg

Время (UTC), дата Ветер
(напр.,м/с)
 
Видим.   Явления Облачность Т
(С)
Тd
(С)
f
(%)
Тe
(С)
Тes
(С)
Комфортность P
(гПа)
Po
(гПа)
Тmin
(С)
Tmax
(С)
R
(мм)
R24
(мм)
S
(см)
12 11.12 ЮЗ 7 н/о н/о +27.0 +5.0 24 +26 +26 жарко 855.7 1007.0 +12.5 +27.5
15 11.12 ЮЗ 8 н/о н/о +23.0 +8.8 40 +24 +24 комфорт 853.2 1006.5 +23.0 +28.2
18 11.12 Ю 9 н/о н/о +17.5 +9.9 61 +16 +16 851.5 1007.8 +17.5 +28.2
21 11.12 Ю 9 н/о н/о +16.1 +9.5 65 +14 +14 852.3 1009.5 +16.1 +28.2
00 12.12 ЮЗ 7 н/о н/о +15.2 +9.1 67 +14 +14 851.6 1009.3 +15.2 +28.2
03 12.12 ЮЗ 6 н/о н/о +13.4 +8.9 74 +11 +11 850.8 1009.4 +13.2 +28.2
06 12.12 Ю 8 н/о н/о +18.4 +9.0 54 +18 +18 855.0 1011.2 +13.2
09 12.12 ЮЗ 9 н/о н/о +21.8 +7.4 39 +23 +23 комфорт 857.1 1011.6 +13.2 +22.2
12 12.12 ЮЗ 9 н/о н/о +22.3 +5.8 34 +23 +23 комфорт 856.8 1010.9 +13.2 +22.9
15 12.12 ЮЗ 11 н/о н/о +20.6 +6.6 40 +21 +21 комфорт 855.3 1010.2 +20.3 +22.9
18 12.12 ЮЗ 7 н/о н/о +16.5 +9.7 64 +15 +15 853.7 1010.9 +16.5 +22.9
21 12.12 ЮЗ 5 н/о н/о +14.4 +9.2 71 +13 +13 853.4 1011.8 +14.4 +22.9
00 13.12 ЮЗ 3 н/о н/о +12.5 +8.9 79 +11 +11 851.8 1011.1 +12.5 +22.9
03 13.12 ЮЗ 1 н/о н/о +11.7 +8.2 79 +12 +12 851.3 1011.0 +11.3 +22.9
06 13.12 ЮЗ 2 н/о н/о +15.9 +10.0 68 +16 +16 854.5 1012.2 +11.1
09 13.12 З 5 н/о н/о +19.5 +9.7 53 +20 +20 856.8 1012.6 +11.1 +20.1
12 13.12 З 6 н/о н/о +20.2 +9.8 51 +21 +21 комфорт 857.0 1012.4 +11.1 +20.9
15 13.12 З 4 н/о н/о +19.5 +11.1 58 +21 +21 комфорт 856.6 1012.4 +18.7 +20.9
21 13.12 ЮЗ 2 н/о н/о +15.8 +13.3 85 +16 +16 856.7 1014.8 +15.8 +20.9
00 14.12 штиль 0 н/о н/о +15.9 +13.5 86 +16 +16 856.5 1014.5 +15.7 +20.9
03 14.12 ЮЗ 2 н/о н/о +15.5 +13.1 86 +15 +15 856.1 1014.2 +15.5 +20.9
06 14.12 Ю 4 н/о н/о +18.9 +12.0 64 +20 +20 858.7 1015.1 +14.8
09 14.12 Ю 5 н/о н/о +23.7 +9.8 41 +25 +25 комфорт 860.8 1014.6 +14.8 +23.7
15 14.12 ЮЗ 9 н/о н/о +22.0 +5.6 34 +22 +22 комфорт 857.9 1012.3 +21.7 +24.6
18 14.12 ЮЗ 5 н/о н/о +16.7 +8.7 59 +16 +16 855.1 1012.3 +16.7 +24.6
21 14.12 ЮЗ 3 н/о н/о +14.5 +8.7 68 +14 +14 854.2 1012.7 +14.5 +24.6
00 15.12 ЮЗ 4 н/о н/о +13.2 +8.9 75 +12 +12 852.3 1011.3 +13.2 +24.6
03 15.12 ЮЗ 3 н/о н/о +12.3 +8.4 77 +11 +11 851.3 1010.6 +12.3 +24.6
06 15.12 ЮЗ 3 н/о н/о +18.3 +9.2 55 +19 +19 854.5 1010.7 +11.6
09 15.12 З 3 н/о н/о +27.4 +7.5 28 +27 +27 жарко 858.1 1009.4 +11.6 +27.4
12 15.12 З 4 н/о н/о +29.0 +4.1 20 +27 +27 жарко 857.2 1007.6 +11.6 +29.6
15 15.12 ЮЗ 7 н/о н/о +25.8 +5.6 27 +25 +25 комфорт 854.8 1006.7 +25.8 +29.6
18 15.12 ЮЗ 7 н/о н/о +17.5 +12.0 70 +17 +17 851.3 1007.6 +17.5 +29.6
00 16.12 ЮЗ 5 н/о н/о +14.9 +11.5 80 +14 +14 849.5 1007.1 +14.9 +29.6
03 16.12 ЮЗ 3 н/о н/о +15.2 +11.6 79 +15 +15 850.3 1007.8 +14.8 +29.6
06 16.12 ЮЗ 5 н/о н/о +17.8 +10.7 63 +17 +17 852.7 1009.0 +14.8
09 16.12 Ю 7 н/о н/о +25.2 +5.1 27 +25 +25 комфорт 856.6 1009.0 +14.8 +25.6
12 16.12 ЮЗ 10 н/о н/о +25.5 +8.7 34 +26 +26 жарко 855.7 1007.9 +14.8 +27.7
15 16.12 ЮЗ 10 н/о н/о +23.3 +11.2 46 +26 +26 жарко 853.4 1006.6 +23.3 +27.7
18 16.12 Ю 10 н/о н/о +19.2 +12.0 63 +19 +19 852.3 1007.7 +19.2 +27.7
00 17.12 ЮЗ 6 н/о н/о +15.3 +11.1 76 +14 +14 850.3 1007.7 +15.3 +27.7
03 17.12 ЮЗ 5 н/о н/о +14.3 +10.9 80 +13 +13 849.7 1007.6 +14.3 +27.7
06 17.12 Ю 3 н/о н/о +20.6 +11.1 54 +23 +23 комфорт 853.9 1008.7 +14.0
09 17.12 С 3 н/о н/о +22.4 +11.9 51 +25 +25 комфорт 854.9 1008.8 +14.0 +23.4
12 17.12 ЮЗ 8 н/о н/о +27.5 +10.5 35 +28 +28 жарко 856.2 1007.3 +14.0 +28.2
15 17.12 Ю 10 н/о н/о +25.0 +10.6 40 +26 +26 жарко 854.1 1006.4 +24.5 +28.2
18 17.12 ЮЗ 6 н/о н/о +18.1 +11.2 64 +18 +18 852.3 1008.4 +18.0 +28.2
21 17.12 ЮЗ 5 н/о н/о +15.1 +10.5 74 +14 +14 852.5 1010.4 +15.1 +28.2
00 18.12 ЮЗ 5 н/о н/о +14.3 +10.3 77 +13 +13 852.1 1010.4 +14.3 +28.2
03 18.12 ЮЗ 4 н/о н/о +13.7 +10.5 81 +12 +12 852.5 1011.2 +13.5 +28.2
06 18.12 Ю 6 н/о н/о +19.5 +11.3 59 +20 +20 857.2 1013.1 +13.5
09 18.12 ЮЗ 9 н/о н/о +25.6 +8.8 34 +26 +26 жарко 859.9 1012.5 +13.5 +25.6

 

Местоположение метеостанции Langebaanweg (Южная Африка): широта -32.96 долгота 18.17 высота над уровнем моря 32 м.

В архиве по умолчанию представлена погода в Langebaanweg за последнюю неделю. Архивные данные за месяц целиком и за предыдущие месяцы, начиная с января 2011 года, Вы можете получить, выбрав интересующий диапазон дат из раскрывающегося списка и нажав кнопку "Ввод!".

Внимание! Время в таблицах - всемирное. Для получения местного времени необходимо прибавить поправку, которая в Langebaanweg равна 2 ч.

Смотрите также архив погоды в соседних городах и на ближайших метеорологических станциях:

Погода в Langebaan (Южная Африка) (19 км)
Погода в Geelbek (Южная Африка) (27 км)
Погода в Cape Columbine (Южная Африка) (33 км)
Погода в Malmesbury (Южная Африка) (76 км)
Погода в Robben Island (Южная Африка) (95 км)
Погода в Lamberts Bay (Южная Африка) (105 км)
Погода в Table Bay (Южная Африка) (107 км)
Погода в Ysterplant (Южная Африка) (109 км)
Погода в Clanwilliam (Южная Африка) (110 км)
Погода в Cape Town (Южная Африка) (111 км)

Пояснения к столбцам:

Ветер - указаны скорость ветра в м/с - средняя за 10 мин, порывы в срок и между сроками (в фигурных скобках) и направление, откуда дует ветер: С - северный, СВ - северо-восточный, В - восточный, ЮВ - юго-восточный, Ю - южный, ЮЗ - юго-западный, З - западный, СЗ - северо-западный.
Видимость - горизонтальная дальность видимости в метрах или километрах. При видимости от 1 до 10 км при отсутствии осадков обычно наблюдается дымка, при ухудшении видимости до 1 км и менее - туман. В сухую погоду видимость может ухудшаться дымом, пылью или мглою.
Явления - указаны атмосферные явления, наблюдавшиеся в срок или в последний час перед сроком; фигурными скобками обозначены явления, наблюдавшиеся между сроками (за 1-3 часа до срока); квадратными скобками обозначены град или гололедные отложения с указанием их диаметра в мм.
Облачность - указаны через наклонную черту общая и нижняя облачность в баллах и высота нижней границы облаков в метрах; квадратными скобками обозначены формы облаков: Ci - перистые, Cs - перисто-слоистые, Cc - перисто-кучевые, Ac - высококучевые, As - высокослоистые, Sc - слоисто-кучевые, Ns - слоисто-дождевые, Cu - кучевые, Cb - кучево-дождевые. Подробнее классификацию облаков см. в Атласе облаков (PDF).
T - Температура воздуха - температура, измеренная на высоте 2 м над землей.
Td - Температура точки росы - температура, при понижении до которой содержащийся в воздухе водяной пар достигнет насыщения.
f - Относительная влажность воздуха - влажноcть воздуха, измеренная на высоте 2 м над землей.
Te - Эффективная температура - температура, которую ощущает одетый по сезону человек в тени. Характеристика душности погоды. При расчете учитывается влияние влажности воздуха и скорости ветра на теплоощущения человека.
Tes - Эффективная температура на солнце - температура, которую ощущает человек, с поправкой на солнечный нагрев. Характеристика знойности погоды. Зависит от высоты солнца над горизонтом, облачности и скорости ветра. Ночью, в пасмурную погоду, а также при ветре 12 м/с и более поправка равна нулю.
P - Атмосферное давление - приведенное к уровню моря атмосферное давление.
Po - Атмосферное давление - измеренное на уровне метеостанции атмосферное давление.
Tmin - Минимальная температура - минимум температуры воздуха на высоте 2 м над землей.
Tmax - Максимальная температура - максимум температуры воздуха на высоте 2 м над землей.
R - Количество осадков - Количество выпавших осадков за период времени, мм. При наведении курсора мыши на число - период времени, за который выпало указанное количество осадков.
R24 - Количество осадков - Количество выпавших осадков за 24 часа, мм.
S - Снежный покров - Высота снежного покрова, см. При наведении курсора мыши на число - состояние снежного покрова и степень покрытия местности в баллах.